Miscellaneous Local Product
Issued by NWS Hastings, NE

Home | Current Version | Previous Version | Text Only | Print | Product List | Glossary Off
Versions: 1 2 3 4 5 6 7 8 9 10 11 12 13 14 15 16 17 18 19 20 21 22 23 24 25 26 27 28 29 30 31 32 33 34 35 36 37 38 39 40 41 42 43 44 45 46 47 48 49 50

000
AXUS43 KGID 221902
MISGRI

GID CWA HOURLY WEATHER ROUNDUP
NATIONAL WEATHER SERVICE HASTINGS NE
200 PM CDT THU JUN 22 2017

NOTE: "FAIR" INDICATES FEW OR NO CLOUDS BELOW 12,000 FEET WITH NO
SIGNIFICANT WEATHER AND/OR OBSTRUCTIONS TO VISIBILITY.

...SOUTH CENTRAL NEBRASKA...

CITY           SKY/WX    TMP DP  RH WIND       PRES   REMARKS
GRAND ISLAND   MOSUNNY   91  64  40 W7        29.64F HX  92
HASTINGS       CLOUDY    89  62  40 NW5       29.66S
KEARNEY        CLOUDY    88  61  40 CALM      29.67S
ORD            CLOUDY    83  62  49 N23G31    29.71R
YORK           CLOUDY    88  66  48 S10       29.65R HX  90
AURORA         CLOUDY    89  63  42 SW10G16   29.64S HX  90
LEXINGTON      CLOUDY    88  62  41 N18G25    29.70R
HOLDREGE       CLOUDY    89  59  36 N7        29.67S
HEBRON         MOSUNNY   94  62  34 S17       29.62F HX  95

...NEBRASKA PANHANDLE...

CITY           SKY/WX    TMP DP  RH WIND       PRES   REMARKS
CHADRON        MOSUNNY   77  53  43 NE13G18   29.92F
ALLIANCE       SUNNY     74  55  51 NE15      29.91F
SCOTTSBLUFF    SUNNY     78  50  37 NE16G25   29.92S
SIDNEY         SUNNY     79  52  38 N23G32    29.92R

...WESTERN AND NORTH CENTRAL NEBRASKA...

CITY           SKY/WX    TMP DP  RH WIND       PRES   REMARKS
VALENTINE      CLOUDY    70  54  56 NW15G25   29.88R
AINSWORTH      CLOUDY    73  58  60 N20G28    29.85R
ONEILL         PTSUNNY   79  60  51 N17G24    29.77R
BROKEN BOW     CLOUDY    80  63  55 N18G29    29.75R
IMPERIAL       SUNNY     87  56  34 N22G32    29.80R
NORTH PLATTE   SUNNY     85  59  41 N22G38    29.77R
MCCOOK         SUNNY     96  59  29 N21G30    29.69R HX  95

...EASTERN NEBRASKA...

CITY           SKY/WX    TMP DP  RH WIND       PRES   REMARKS
NORFOLK        MOSUNNY   83  65  54 NE17      29.66R
SO SIOUX CITY  LGT RAIN  85  68  56 NE12G21   29.65S
TEKAMAH        CLOUDY    88  64  44 S10       29.63F
COLUMBUS       CLOUDY    89  67  47 S7        29.64S HX  92
ALBION         MOSUNNY   86  65  49 N15G22    29.68R
OMAHA EPPLEY   CLOUDY    88  68  51 S13       29.64F HX  91
OFFUTT AFB     CLOUDY    88  68  51 SE13      29.64F HX  91
MILLARD        CLOUDY    88  71  58 S7        29.64F HX  93
LINCOLN        CLOUDY    85  68  56 S12       29.64S
NEBRASKA CITY  MOSUNNY   89  68  50 S15       29.65S HX  93
BEATRICE       PTSUNNY   88  68  51 S14       29.63F HX  91
FALLS CITY     SUNNY     87  69  54 S17G23    29.66F HX  91

...NORTHERN KANSAS...

CITY           SKY/WX    TMP DP  RH WIND       PRES   REMARKS
GOODLAND       SUNNY     90  57  32 N23G32    29.78R
HILL CITY      SUNNY    100  63  29 S6        29.63F HX 102
NORTON         CLEAR     99  45  15 N16       29.65  HX  94
PHILLIPSBURG   SUNNY     97  59  28 NW3       29.63S HX  96
SMITH CENTER     N/A     93  61  33 S5        29.63F HX  93
HAYS           CLOUDY    95  64  35 S16G23    29.64F HX  97
RUSSELL        SUNNY     95  60  31 S15G28    29.63F HX  95
CONCORDIA      SUNNY     94  61  33 SW15G25   29.64F HX  94
SALINA         SUNNY     97  62  31 S17       29.64F HX  98
TOPEKA         SUNNY     88  70  55 S12G20    29.69F HX  93



USA.gov is the U.S. government's official web portal to all federal, state and local government web resources and services.